User: anonymous   Login
Location: Unspecified
(0.0000°N, 0.0000°E)
Time: 15:33:21
(UTC+00:00)
Language:

DIAMOND RED - Orbit

View from above orbital plane
View from above orbital plane
View from above satellite
View from above satellite

Ground track
Ground track

The orbit data is extracted from the following two-line orbital elements,

1 42783U 17036U   18267.64361542 +.00001124 +00000-0 +52695-4 0  9995
2 42783 097.3911 325.6437 0014108 088.8701 271.4151 15.21654225069630
Epoch (UTC): 24 September 2018 15:26:48
Eccentricity: 0.0014108
inclination: 97.3911°
perigee height: 491 km
apogee height: 510 km
right ascension of ascending node: 325.6437°
argument of perigee: 88.8701°
revolutions per day: 15.21654225
mean anomaly at epoch: 271.4151°
orbit number at epoch: 6963

The dashed part of the orbit path shows where the satellite is in the earth's shadow,  

DLR